Eelde, Netherlands

7:40 AM CET on November 18, 2017 (GMT +0100)
Eelde

Weather History for EHGG - December, 2012

Change the Weather History Date:

Monday, December 31, 2012

  Actual Average Record
Temperature  
Mean Temperature 47 °F -  
Max Temperature 50 °F 39 °F 50 °F (1997)
Min Temperature 44 °F 29 °F 12 °F (1996)
Degree Days  
Heating Degree Days 18    
Moisture  
Dew Point 45 °F    
Average Humidity 87    
Maximum Humidity 93    
Minimum Humidity 77    
Precipitation  
Precipitation 0.16 in 0.09 in - ()
Sea Level Pressure  
Sea Level Pressure 29.68 in    
Wind  
Wind Speed 21 mph ()    
Max Wind Speed 27 mph    
Max Gust Speed 37 mph    
Visibility 6.3 miles    
Events Rain    
Averages and records for this station are not official NWS values.
T = Trace of Precipitation, MM = Missing Value Source: Averaged Metar Reports

Daily Weather History Graph

Daily Weather History Graph

Search for Another Location

Airport or City:

Trip Planner

Search our weather history database for the weather conditions in past years. The results will help you decide how hot, cold, wet, or windy it might be!

Date:

Astronomy

Dec. 31, 2012 Rise Set
Actual Time 8:47 AM CET 4:26 PM CET
Civil Twilight 8:05 AM CET 5:08 PM CET
Nautical Twilight 7:20 AM CET 5:53 PM CET
Astronomical Twilight 6:38 AM CET 6:35 PM CET
Moon 8:10 PM CET (12/31) 9:54 AM CET (12/31)
Length of Visible Light 9h 02m
Length of Day
7h 38m
Waning Gibbous, 92% of the Moon is Illuminated
Dec 31
Waning Gibbous
Jan 5
Last Quarter
Jan 11
New
Jan 19
First Quarter
Jan 27
Full

Hourly Weather History & Observations

Time (CET) Temp. Windchill Dew Point Humidity Pressure Visibility Wind Dir Wind Speed Gust Speed Precip Events Conditions
12:25 AM 48.2 °F - 42.8 °F 82% 29.80 in 6.2 mi SW 24.2 mph - N/A   Drizzle
12:55 AM 46.4 °F 38.5 °F 44.6 °F 93% 29.80 in 4.3 mi SW 21.9 mph - N/A Rain Heavy Drizzle
1:00 AM 47 °F - 44 °F 84% 29.82 in 4 mi SW 20.1 mph - - Rain Heavy Rain
1:25 AM 46.4 °F 38.7 °F 44.6 °F 93% 29.80 in 5.6 mi SW 20.7 mph - N/A   Light Drizzle
1:55 AM 46.4 °F 38.5 °F 44.6 °F 93% 29.80 in 6.2 mi SW 21.9 mph - N/A   Overcast
2:25 AM 46.4 °F 38.3 °F 44.6 °F 93% 29.80 in 3.7 mi SW 23.0 mph - N/A Rain Light Rain
2:55 AM 48.2 °F - 44.6 °F 87% 29.80 in 5.6 mi SW 20.7 mph 33.4 mph N/A   Drizzle
3:25 AM 48.2 °F - 44.6 °F 87% 29.77 in 6.2 mi SW 23.0 mph - N/A   Overcast
3:55 AM 48.2 °F - 44.6 °F 87% 29.77 in 6.2 mi SW 26.5 mph - N/A   Overcast
4:00 AM 48 °F - 45 °F 84% 29.79 in 8 mi SW 26.8 mph - - Rain Drizzle
4:25 AM 48.2 °F - 44.6 °F 87% 29.77 in 6.2 mi SW 25.3 mph - N/A   Overcast
4:55 AM 48.2 °F - 44.6 °F 87% 29.77 in 6.2 mi SW 26.5 mph - N/A   Overcast
5:25 AM 48.2 °F - 44.6 °F 87% 29.77 in 6.2 mi SW 23.0 mph - N/A   Overcast
5:55 AM 48.2 °F - 44.6 °F 87% 29.74 in 6.2 mi SW 25.3 mph 36.8 mph N/A   Overcast
6:25 AM 48.2 °F - 44.6 °F 87% 29.77 in 6.2 mi SW 24.2 mph - N/A   Overcast
6:55 AM 48.2 °F - 44.6 °F 87% 29.77 in 6.2 mi SW 25.3 mph - N/A   Overcast
7:00 AM 48 °F - 44 °F 82% 29.77 in 10 mi SW 24.6 mph - -   Partly Cloudy
7:25 AM 48.2 °F - 44.6 °F 87% 29.74 in 6.2 mi SW 24.2 mph - N/A   Overcast
7:55 AM 48.2 °F - 44.6 °F 87% 29.74 in 6.2 mi SW 25.3 mph - N/A   Overcast
8:25 AM 48.2 °F - 44.6 °F 87% 29.77 in 6.2 mi SW 24.2 mph 35.7 mph N/A   Overcast
8:55 AM 48.2 °F - 44.6 °F 87% 29.77 in 6.2 mi SW 24.2 mph - N/A   Overcast
9:25 AM 48.2 °F - 44.6 °F 87% 29.77 in 6.2 mi SW 23.0 mph - N/A   Overcast
9:55 AM 48.2 °F - 44.6 °F 87% 29.74 in 6.2 mi SSW 23.0 mph - N/A   Overcast
10:00 AM 48 °F - 44 °F 80% 29.77 in 11 mi SSW 22.4 mph - -   Overcast
10:25 AM 48.2 °F - 44.6 °F 87% 29.77 in 6.2 mi SW 24.2 mph - N/A   Overcast
10:55 AM 48.2 °F - 44.6 °F 87% 29.77 in 6.2 mi SSW 23.0 mph - N/A   Overcast
11:25 AM 48.2 °F - 44.6 °F 87% 29.74 in 6.2 mi SSW 21.9 mph 34.5 mph N/A   Overcast
11:55 AM 48.2 °F - 44.6 °F 87% 29.74 in 6.2 mi SSW 20.7 mph - N/A   Overcast
12:25 PM 48.2 °F - 44.6 °F 87% 29.71 in 6.2 mi SSW 23.0 mph - N/A   Overcast
12:55 PM 48.2 °F - 44.6 °F 87% 29.71 in 6.2 mi SSW 23.0 mph 36.8 mph N/A   Overcast
1:00 PM 49 °F - 44 °F 77% 29.72 in 11 mi SSW 24.6 mph - -   Partly Cloudy
1:25 PM 48.2 °F - 44.6 °F 87% 29.71 in 6.2 mi SSW 24.2 mph - N/A   Overcast
1:55 PM 48.2 °F - 44.6 °F 87% 29.68 in 6.2 mi SSW 21.9 mph - N/A   Overcast
2:25 PM 48.2 °F - 44.6 °F 87% 29.68 in 6.2 mi SSW 23.0 mph - N/A   Overcast
2:55 PM 48.2 °F - 44.6 °F 87% 29.65 in 6.2 mi SSW 21.9 mph - N/A   Overcast
3:25 PM 48.2 °F - 44.6 °F 87% 29.65 in 6.2 mi SSW 23.0 mph 34.5 mph N/A   Overcast
3:55 PM 48.2 °F - 44.6 °F 87% 29.62 in 6.2 mi SSW 21.9 mph - N/A   Overcast
4:00 PM 49 °F - 44 °F 79% 29.63 in 12 mi SSW 22.4 mph - -   Overcast
4:25 PM 48.2 °F - 44.6 °F 87% 29.59 in 6.2 mi SSW 23.0 mph - N/A   Overcast
4:55 PM 48.2 °F - 44.6 °F 87% 29.59 in 3.1 mi SSW 21.9 mph - N/A Rain Light Rain
5:25 PM 50.0 °F - 44.6 °F 82% 29.59 in 6.2 mi SSW 23.0 mph - N/A   Mostly Cloudy
5:55 PM 50.0 °F - 44.6 °F 82% 29.56 in 6.2 mi SSW 23.0 mph - N/A   Overcast
6:25 PM 50.0 °F - 44.6 °F 82% 29.56 in 6.2 mi SSW 23.0 mph - N/A   Drizzle
6:55 PM 48.2 °F - 44.6 °F 87% 29.53 in 6.2 mi SSW 23.0 mph - N/A   Drizzle
7:00 PM 49 °F - 45 °F 80% 29.55 in 8 mi SSW 24.6 mph - - Rain Light Drizzle
7:25 PM 48.2 °F - 44.6 °F 87% 29.53 in 6.2 mi SSW 25.3 mph - N/A Rain Light Rain
7:55 PM 48.2 °F - 44.6 °F 87% 29.53 in 6.2 mi SSW 23.0 mph 34.5 mph N/A   Drizzle
8:25 PM 48.2 °F - 44.6 °F 87% 29.50 in 6.2 mi SSW 20.7 mph - N/A Rain Light Rain
8:55 PM 48.2 °F - 46.4 °F 93% 29.50 in 6.2 mi SSW 23.0 mph - N/A   Drizzle
9:25 PM 48.2 °F - 46.4 °F 93% 29.50 in 6.2 mi SSW 23.0 mph - N/A   Drizzle
9:55 PM 48.2 °F - 46.4 °F 93% 29.50 in 5.0 mi SSW 20.7 mph 32.2 mph N/A Rain Light Rain
10:00 PM 48 °F - 46 °F 89% 29.51 in 5 mi SSW 20.1 mph - - Rain Light Rain
10:25 PM 48.2 °F - 46.4 °F 93% 29.47 in 5.0 mi SSW 19.6 mph - N/A Rain Light Rain
10:55 PM 48.2 °F - 46.4 °F 93% 29.47 in 5.0 mi SSW 21.9 mph - N/A Rain Light Rain
11:25 PM 48.2 °F - 46.4 °F 93% 29.44 in 5.0 mi SSW 20.7 mph 32.2 mph N/A Rain Light Rain Showers